Regional Weather Roundup
Issued by NWS

Home | Current Version | Previous Version | Text Only | Print | Product List | Glossary Off
Versions: 1 2 3 4 5 6 7 8 9 10 11 12 13 14 15 16 17 18 19 20 21 22 23 24 25 26 27 28 29 30 31 32 33 34 35 36 37 38 39 40 41 42 43 44 45 46 47 48 49 50

486
ASUS43 KFSD 121002
RWRSD

WEATHER ROUNDUP FOR SOUTH DAKOTA
NATIONAL WEATHER SERVICE SIOUX FALLS SD
400 AM CST TUE DEC 12 2017

NOTE: "FAIR" INDICATES FEW OR NO CLOUDS BELOW 12,000 FEET WITH NO
SIGNIFICANT WEATHER AND/OR OBSTRUCTIONS TO VISIBILITY.


SDZ001>005-009-010-012>017-121100-
NORTHWEST AND NORTH CENTRAL SOUTH DAKOTA

CITY           SKY/WX    TMP DP  RH WIND       PRES   REMARKS
BUFFALO          N/A     26  21  81 W12       30.17F WCI  16
FAITH            N/A     25  23  92 W8        30.25F WCI  16
MOBRIDGE       CLOUDY    30  27  88 CALM      30.21F
$$

SDZ012>016-024>037-041>051-057-063-072>074-121100-
SOUTHWEST AND SOUTH CENTRAL SOUTH DAKOTA

CITY           SKY/WX    TMP DP  RH WIND       PRES   REMARKS
RAPID CTY ARPT CLOUDY    20  15  81 CALM      30.28F
PIERRE         CLOUDY    33  31  92 W8        30.27F WCI  26
CUSTER         CLOUDY    35  -3  19 W9G18     30.26F WCI  28
ELLSWORTH AFB  CLOUDY    21  13  70 W6        30.26F WCI  13
PHILIP         CLOUDY    20  19  96 W6        30.31F WCI  12
PINE RIDGE     CLOUDY    16  14  92 CALM      30.32F
SPEARFISH      FAIR      37   7  28 W10       30.27F
WINNER         CLOUDY    37  29  72 W8        30.29F
$$

SDZ004>011-016>023-039-040-121100-
NORTHEAST SOUTH DAKOTA

CITY           SKY/WX    TMP DP  RH WIND       PRES   REMARKS
ABERDEEN       CLOUDY    21  19  92 S6        30.27F WCI  13
WATERTOWN      CLOUDY    12  11  95 CALM      30.23F
BROOKINGS      CLOUDY    11   8  88 NW3       30.28F
SISSETON         N/A     16  13  88 S5        30.25F WCI   9
$$

SDZ017-020-022-023-036>040-048>070-121100-
SOUTHEAST SOUTH DAKOTA

CITY           SKY/WX    TMP DP  RH WIND       PRES   REMARKS
SIOUX FALLS    CLOUDY    13  10  88 W5        30.29F WCI   5
HURON          CLOUDY    21  18  88 S7        30.29F WCI  12
CHAMBERLAIN    CLOUDY    24  24 100 CALM      30.29F
MITCHELL       CLOUDY    20  17  88 SW5       30.32F WCI  13
YANKTON        CLOUDY    18  14  84 W8        30.33F WCI   8
$$

ABBREVIATIONS USED IN REMARKS
   TC - TEMPERATURE IN CELSIUS
  WCI - WIND CHILL INDEX
   HX - HEAT INDEX
  VSB - VISIBILITY





USA.gov is the U.S. government's official web portal to all federal, state and local government web resources and services.